Location: Votelez
(50.0000°N, 15.0000°E)
Time: 05:38:35
(UTC+01:00)

ARIANE 6 FM1 Upper Stage - Pass Details

Date: 16 February 2026
Orbit: 523 x 607 km, 62.0° (Epoch: 11 March)

Event Time Altitude Azimuth Distance (km) Brightness Sun altitude
Rises 18:37:59 0° 314° (NW) 2,662 6.8 -13.1°
Reaches altitude 10° 18:40:11 10° 317° (NW) 1,769 5.8 -13.5°
Maximum altitude 18:44:08 73° 42° (NE) 554 2.4 -14.1°
Enters shadow 18:46:50 20° 125° (SE) 1,275 4.0 -14.5°
